Change the Weather History Date:

Thursday, November 22, 2012

  Actual Average Record
Temperature  
Mean Temperature 64 °F -  
Max Temperature 75 °F 62 °F 62 °F (2014)
Min Temperature 54 °F 41 °F 39 °F (2013)
Growing Degree Days 14 (Base 50)    
Moisture  
Dew Point 46 °F    
Average Humidity 55    
Maximum Humidity 73    
Minimum Humidity 34    
Precipitation  
Precipitation 0.00 in - - ()
Sea Level Pressure  
Sea Level Pressure 30.09 in    
Wind  
Wind Speed 6 mph ()    
Max Wind Speed 18 mph    
Max Gust Speed 28 mph    
Visibility 10.0 miles    
Events Rain    
Averages and records for this station are not official NWS values.
T = Trace of Precipitation, MM = Missing Value Source: Averaged Metar Reports

Daily Weather History Graph

Daily Weather History Graph

Search for Another Location

Airport or City:

Trip Planner

Search our weather history database for the weather conditions in past years. The results will help you decide how hot, cold, wet, or windy it might be!

Date:

Astronomy

Nov. 22, 2012 Rise Set
Actual Time 7:01 AM CST 5:14 PM CST
Civil Twilight 6:34 AM CST 5:41 PM CST
Nautical Twilight 6:04 AM CST 6:12 PM CST
Astronomical Twilight 5:34 AM CST 6:42 PM CST
Moon 1:48 PM CST (11/22) 1:36 AM CST (11/22)
Length of Visible Light 11h 07m
Length of Day
10h 13m
Waxing Gibbous, 71% of the Moon is Illuminated
Nov 22
Waxing Gibbous
Nov 28
Full
Dec 6
Last Quarter
Dec 13
New
Dec 19
First Quarter

Hourly Weather History & Observations

Time (CST) Temp. Dew Point Humidity Pressure Visibility Wind Dir Wind Speed Gust Speed Precip Events Conditions
12:15 AM 55.6 °F 43.0 °F 63% 30.13 in 10.0 mi SSE 5.8 mph - N/A   Clear
12:35 AM 54.9 °F 43.0 °F 64% 30.13 in 10.0 mi SSE 5.8 mph - N/A   Clear
12:55 AM 54.7 °F 43.2 °F 65% 30.13 in 10.0 mi SSE 6.9 mph - N/A   Clear
1:15 AM 54.5 °F 43.2 °F 66% 30.12 in 10.0 mi SSE 5.8 mph - N/A   Clear
1:35 AM 54.7 °F 43.0 °F 65% 30.11 in 10.0 mi SSE 4.6 mph - N/A   Clear
1:55 AM 54.7 °F 43.2 °F 65% 30.11 in 10.0 mi SSE 5.8 mph - N/A   Clear
2:15 AM 55.2 °F 43.0 °F 63% 30.11 in 10.0 mi South 8.1 mph - N/A   Clear
2:35 AM 55.8 °F 42.8 °F 62% 30.11 in 10.0 mi South 8.1 mph - N/A   Clear
2:55 AM 56.5 °F 42.6 °F 60% 30.10 in 10.0 mi South 9.2 mph - N/A   Clear
3:15 AM 56.5 °F 42.3 °F 59% 30.10 in 10.0 mi SSE 8.1 mph - N/A   Clear
3:35 AM 56.7 °F 42.3 °F 59% 30.10 in 10.0 mi South 8.1 mph - N/A   Clear
3:55 AM 56.7 °F 42.3 °F 59% 30.10 in 10.0 mi South 5.8 mph - N/A   Clear
4:15 AM 55.8 °F 42.8 °F 62% 30.10 in 10.0 mi South 5.8 mph - N/A   Clear
4:35 AM 55.6 °F 42.8 °F 62% 30.10 in 10.0 mi SSE 6.9 mph - N/A   Clear
4:55 AM 55.4 °F 42.8 °F 63% 30.10 in 10.0 mi South 6.9 mph - N/A   Clear
5:15 AM 55.4 °F 42.8 °F 63% 30.11 in 10.0 mi South 5.8 mph - N/A   Clear
5:35 AM 54.7 °F 42.8 °F 64% 30.12 in 10.0 mi South 4.6 mph - N/A   Clear
5:55 AM 54.7 °F 43.2 °F 65% 30.12 in 10.0 mi South 4.6 mph - N/A   Clear
6:15 AM 54.3 °F 43.7 °F 67% 30.12 in 10.0 mi South 4.6 mph - N/A   Clear
6:35 AM 54.5 °F 43.9 °F 67% 30.12 in 10.0 mi South 6.9 mph - N/A   Clear
6:55 AM 54.5 °F 43.9 °F 67% 30.13 in 10.0 mi South 5.8 mph - N/A   Clear
7:15 AM 54.0 °F 44.1 °F 69% 30.13 in 10.0 mi SSE 3.5 mph - N/A   Clear
7:35 AM 54.0 °F 43.9 °F 69% 30.12 in 10.0 mi SE 5.8 mph - N/A   Clear
7:55 AM 54.5 °F 44.1 °F 68% 30.13 in 10.0 mi South 5.8 mph - N/A   Clear
8:15 AM 55.0 °F 44.6 °F 68% 30.13 in 10.0 mi South 4.6 mph - N/A   Clear
8:35 AM 56.3 °F 44.8 °F 65% 30.13 in 10.0 mi South 5.8 mph - N/A   Clear
8:55 AM 57.9 °F 45.3 °F 63% 30.13 in 10.0 mi South 8.1 mph - N/A   Clear
9:15 AM 59.9 °F 46.0 °F 60% 30.13 in 10.0 mi South 5.8 mph - N/A   Clear
9:35 AM 63.3 °F 46.8 °F 55% 30.13 in 10.0 mi South 9.2 mph - N/A   Clear
9:55 AM 65.1 °F 47.3 °F 52% 30.14 in 10.0 mi North - - N/A   Clear
10:15 AM 67.8 °F 47.7 °F 48% 30.13 in 10.0 mi SW 11.5 mph 18.4 mph N/A   Clear
10:35 AM 69.1 °F 47.7 °F 46% 30.13 in 10.0 mi SSW 10.4 mph - N/A   Clear
10:55 AM 70.0 °F 47.8 °F 45% 30.11 in 10.0 mi SSW 10.4 mph 17.3 mph N/A   Clear
11:15 AM 71.6 °F 48.0 °F 43% 30.10 in 10.0 mi SSW 16.1 mph 24.2 mph N/A   Clear
11:35 AM 72.3 °F 47.3 °F 41% 30.10 in 10.0 mi SSW 18.4 mph 27.6 mph N/A   Clear
11:55 AM 73.0 °F 47.5 °F 40% 30.09 in 10.0 mi SSW 15.0 mph 23.0 mph N/A   Clear
12:15 PM 72.9 °F 46.4 °F 39% 30.08 in 10.0 mi SSW 12.7 mph 21.9 mph N/A   Clear
12:35 PM 72.5 °F 46.2 °F 39% 30.07 in 10.0 mi SSW 13.8 mph 24.2 mph N/A   Clear
12:55 PM 74.3 °F 45.0 °F 35% 30.06 in 10.0 mi North - - N/A   Clear
1:15 PM 73.9 °F 44.2 °F 35% 30.04 in 10.0 mi SSW 9.2 mph 20.7 mph N/A   Clear
1:35 PM 73.2 °F 45.5 °F 37% 30.04 in 10.0 mi SSW 13.8 mph 20.7 mph N/A   Clear
1:55 PM 74.1 °F 46.6 °F 37% 30.03 in 10.0 mi SSW 10.4 mph 21.9 mph N/A   Scattered Clouds
2:15 PM 74.7 °F 47.1 °F 38% 30.02 in 10.0 mi South 8.1 mph 16.1 mph N/A   Clear
2:35 PM 75.2 °F 45.3 °F 34% 30.01 in 10.0 mi South 13.8 mph 23.0 mph N/A   Clear
2:55 PM 73.4 °F 45.0 °F 36% 30.02 in 10.0 mi South 13.8 mph 20.7 mph N/A   Scattered Clouds
3:15 PM 73.2 °F 46.4 °F 38% 30.02 in 10.0 mi South 10.4 mph 21.9 mph N/A   Scattered Clouds
3:35 PM 71.6 °F 46.6 °F 41% 30.02 in 10.0 mi SSW 11.5 mph 17.3 mph N/A   Clear
3:55 PM 71.6 °F 47.5 °F 42% 30.03 in 10.0 mi South 9.2 mph - N/A   Clear
4:15 PM 71.6 °F 46.8 °F 41% 30.03 in 10.0 mi South 9.2 mph - N/A   Clear
4:35 PM 71.6 °F 46.4 °F 41% 30.03 in 10.0 mi South 9.2 mph - N/A   Clear
4:55 PM 70.7 °F 44.6 °F 39% 30.03 in 10.0 mi SSW 8.1 mph - N/A   Clear
5:15 PM 69.3 °F 44.8 °F 41% 30.03 in 10.0 mi SSW 8.1 mph - N/A   Clear
5:35 PM 68.7 °F 45.0 °F 42% 30.04 in 10.0 mi SSW 8.1 mph - N/A   Clear
5:55 PM 67.8 °F 45.0 °F 44% 30.05 in 10.0 mi SSW 5.8 mph - N/A   Clear
6:15 PM 66.4 °F 44.8 °F 46% 30.05 in 10.0 mi South 6.9 mph - N/A   Clear
6:35 PM 65.7 °F 44.6 °F 47% 30.06 in 10.0 mi South 3.5 mph - N/A   Scattered Clouds
6:55 PM 65.3 °F 45.0 °F 48% 30.07 in 10.0 mi South 3.5 mph - N/A   Mostly Cloudy
7:15 PM 65.7 °F 45.9 °F 49% 30.08 in 10.0 mi South 3.5 mph - N/A   Mostly Cloudy
7:35 PM 65.3 °F 46.4 °F 50% 30.07 in 10.0 mi South 4.6 mph - N/A   Overcast
7:55 PM 65.7 °F 46.9 °F 51% 30.08 in 10.0 mi SSE 3.5 mph - N/A Rain Light Rain
8:15 PM 63.5 °F 49.3 °F 60% 30.08 in 10.0 mi South 4.6 mph - N/A   Light Drizzle
8:35 PM 63.5 °F 49.1 °F 59% 30.09 in 10.0 mi Calm Calm - N/A Rain Light Rain
8:55 PM 63.3 °F 49.3 °F 60% 30.09 in 10.0 mi SSE 4.6 mph - N/A   Mostly Cloudy
9:15 PM 62.8 °F 50.0 °F 63% 30.10 in 10.0 mi Calm Calm - N/A Rain Rain
9:35 PM 63.0 °F 50.0 °F 63% 30.11 in 10.0 mi Calm Calm - N/A Rain Light Rain
9:55 PM 61.5 °F 51.3 °F 69% 30.11 in 10.0 mi SSE 3.5 mph - N/A   Overcast
10:15 PM 61.3 °F 51.8 °F 71% 30.11 in 10.0 mi Calm Calm - N/A   Overcast
10:35 PM 61.2 °F 51.1 °F 69% 30.11 in 10.0 mi Calm Calm - N/A   Overcast
10:55 PM 61.2 °F 51.1 °F 69% 30.12 in 10.0 mi Calm Calm - N/A   Overcast
11:15 PM 61.2 °F 51.4 °F 70% 30.12 in 10.0 mi Calm Calm - N/A   Overcast
11:35 PM 61.0 °F 51.4 °F 71% 30.12 in 10.0 mi Calm Calm - N/A   Overcast
11:55 PM 59.9 °F 51.3 °F 73% 30.12 in 10.0 mi Calm Calm - N/A   Overcast